sat.trackr.live / text

‹ back to catalog

STARLINK-34672

NORAD 65894 · 2025-224N

PAYLOAD ACTIVE UNKNOWN

§ Identity

Operator
Country
US
Launch date
2025-10-07
Launch site
AFETR
Launch vehicle
Mass (kg)
RCS (m²)

Purposes: comms

External: N2YO · Heavens-Above · Gunter

§ Orbital elements

Epoch: 2026-05-25T01:11:00.620736Z

Period
94.10 min
Inclination
53.1596°
Eccentricity
0.0001072
Mean motion
15.30206247 rev/d
Perigee alt
474.5 km
Apogee alt
475.9 km
Semi-major
6,853.3 km
B*
3.9410e-4
RAAN
16.7777°
Arg perigee
75.0051°
Mean anomaly
285.1068°
Rev number
3,656

§ Raw data

STARLINK-346721 65894U 25224N   26145.04931274  .00011333  00000+0  39410-3 0  99952 65894  53.1596  16.7777 0001072  75.0051 285.1068 15.30206247 36566

JSON: /api/v1/satellites/65894 · /tle

For live sub-satellite position, see the globe view (requires WebGL).

§ Visibility from observer

Set your observer location to see the next 7 days of passes ≥ 10°. The values pass through the URL so the page stays shareable.

No JS? Fill the form by hand. The geolocation button needs JavaScript.